| time (UTC) | temp C | wind direction | speed KPH | gust KPH | rain 1hr cm | rain 24hr cm | rain mn cm | humidity % | barometer mb |
| 20260510150220 | 27 | 47 | 3.2 | 6.4 | 0.00 | 0.00 | 0.08 | 76 | 1016.0 |
| 20260510145720 | 27 | 57 | 3.2 | 3.2 | 0.00 | 0.00 | 0.08 | 78 | 1016.0 |
| 20260510145220 | 27 | 93 | 0.0 | 1.6 | 0.00 | 0.00 | 0.08 | 78 | 1016.0 |
| 20260510144722 | 26 | 96 | 0.0 | 1.6 | 0.00 | 0.00 | 0.08 | 79 | 1016.0 |
| 20260510144221 | 26 | 104 | 0.0 | 1.6 | 0.00 | 0.00 | 0.08 | 83 | 1016.0 |
| 20260510143720 | 26 | 144 | 3.2 | 4.8 | 0.00 | 0.00 | 0.08 | 80 | 1016.0 |
| 20260510143220 | 26 | 43 | 0.0 | 3.2 | 0.00 | 0.00 | 0.08 | 82 | 1016.0 |
| 20260510142721 | 26 | 70 | 0.0 | 1.6 | 0.00 | 0.00 | 0.08 | 83 | 1016.0 |
| 20260510142220 | 26 | 46 | 0.0 | 1.6 | 0.00 | 0.00 | 0.08 | 85 | 1016.0 |
| 20260510141720 | 25 | 134 | 1.6 | 4.8 | 0.00 | 0.00 | 0.08 | 86 | 1016.0 |
| 20260510141220 | 25 | 87 | 0.0 | 1.6 | 0.00 | 0.00 | 0.08 | 87 | 1016.0 |
| 20260510140720 | 25 | 94 | 1.6 | 3.2 | 0.00 | 0.00 | 0.08 | 90 | 1016.0 |
| 20260510140220 | 25 | 209 | 0.0 | 0.0 | 0.00 | 0.00 | 0.08 | 91 | 1016.0 |
| 20260510135720 | 25 | 140 | 3.2 | 4.8 | 0.00 | 0.00 | 0.08 | 91 | 1016.0 |
| 20260510135221 | 24 | 28 | 1.6 | 3.2 | 0.00 | 0.00 | 0.08 | 92 | 1016.0 |
| 20260510134721 | 24 | 140 | 1.6 | 3.2 | 0.00 | 0.00 | 0.08 | 93 | 1016.0 |
| 20260510134220 | 24 | 147 | 1.6 | 3.2 | 0.00 | 0.00 | 0.08 | 94 | 1016.0 |
| 20260510133721 | 24 | 27 | 1.6 | 1.6 | 0.00 | 0.00 | 0.08 | 94 | 1016.0 |
| 20260510133221 | 24 | 25 | 0.0 | 0.0 | 0.00 | 0.00 | 0.08 | 96 | 1016.0 |
| 20260510132720 | 23 | 134 | 1.6 | 1.6 | 0.00 | 0.00 | 0.08 | 96 | 1016.0 |
| 20260510132221 | 23 | 55 | 0.0 | 1.6 | 0.00 | 0.00 | 0.08 | 96 | 1016.0 |
| 20260510131720 | 23 | 54 | 0.0 | 3.2 | 0.00 | 0.00 | 0.08 | 96 | 1016.0 |
| 20260510131220 | 23 | 72 | 0.0 | 1.6 | 0.00 | 0.00 | 0.08 | 97 | 1016.0 |
| 20260510130721 | 23 | 111 | 0.0 | 0.0 | 0.00 | 0.00 | 0.08 | 97 | 1016.0 |
| 20260510130222 | 23 | 148 | 1.6 | 1.6 | 0.00 | 0.00 | 0.08 | 97 | 1016.0 |
| 20260510125720 | 23 | 153 | 0.0 | 1.6 | 0.00 | 0.00 | 0.08 | 97 | 1016.0 |
| 20260510125220 | 23 | 164 | 1.6 | 3.2 | 0.00 | 0.00 | 0.08 | 98 | 1015.0 |
| 20260510124720 | 23 | 144 | 1.6 | 1.6 | 0.00 | 0.00 | 0.08 | 98 | 1015.0 |
| 20260510124220 | 23 | 151 | 1.6 | 1.6 | 0.00 | 0.00 | 0.08 | 98 | 1015.0 |
| 20260510123720 | 22 | 336 | 0.0 | 0.0 | 0.00 | 0.00 | 0.08 | 98 | 1015.0 |
| 20260510123222 | 22 | 336 | 0.0 | 0.0 | 0.00 | 0.00 | 0.08 | 98 | 1015.0 |
| 20260510122721 | 22 | 336 | 0.0 | 0.0 | 0.00 | 0.00 | 0.08 | 98 | 1015.0 |
| 20260510122221 | 22 | 336 | 0.0 | 0.0 | 0.00 | 0.00 | 0.08 | 98 | 1015.0 |
| 20260510121720 | 22 | 336 | 0.0 | 0.0 | 0.00 | 0.00 | 0.08 | 98 | 1015.0 |
| 20260510121221 | 22 | 336 | 0.0 | 0.0 | 0.00 | 0.00 | 0.08 | 98 | 1015.0 |
| 20260510120721 | 22 | 336 | 0.0 | 0.0 | 0.00 | 0.00 | 0.08 | 98 | 1015.0 |
| 20260510120220 | 22 | 336 | 0.0 | 0.0 | 0.00 | 0.00 | 0.08 | 98 | 1015.0 |
| 20260510115720 | 22 | 336 | 0.0 | 0.0 | 0.00 | 0.00 | 0.08 | 98 | 1015.0 |
| 20260510115220 | 21 | 336 | 0.0 | 0.0 | 0.00 | 0.00 | 0.08 | 98 | 1015.0 |
| 20260510114720 | 21 | 336 | 0.0 | 0.0 | 0.00 | 0.00 | 0.08 | 98 | 1015.0 |
| 20260510114220 | 21 | 336 | 0.0 | 0.0 | 0.00 | 0.00 | 0.08 | 98 | 1015.0 |
| 20260510113720 | 21 | 336 | 0.0 | 0.0 | 0.00 | 0.00 | 0.08 | 98 | 1015.0 |
| 20260510113220 | 21 | 336 | 0.0 | 0.0 | 0.00 | 0.00 | 0.08 | 98 | 1015.0 |
| 20260510112720 | 21 | 336 | 0.0 | 0.0 | 0.00 | 0.00 | 0.08 | 98 | 1015.0 |
| 20260510112220 | 21 | 336 | 0.0 | 0.0 | 0.00 | 0.00 | 0.08 | 98 | 1014.0 |
| 20260510111720 | 21 | 336 | 0.0 | 0.0 | 0.00 | 0.00 | 0.08 | 98 | 1014.0 |
| 20260510111223 | 21 | 336 | 0.0 | 0.0 | 0.03 | 0.00 | 0.08 | 98 | 1014.0 |
| 20260510110720 | 20 | 336 | 0.0 | 0.0 | 0.05 | 0.00 | 0.08 | 98 | 1014.0 |
| 20260510110221 | 21 | 336 | 0.0 | 0.0 | 0.05 | 0.00 | 0.08 | 98 | 1014.0 |
| 20260510105720 | 21 | 336 | 0.0 | 0.0 | 0.08 | 0.00 | 0.08 | 98 | 1014.0 |
| 20260510105221 | 21 | 336 | 0.0 | 0.0 | 0.08 | 0.00 | 0.08 | 98 | 1014.0 |
| 20260510104720 | 20 | 336 | 0.0 | 0.0 | 0.08 | 0.00 | 0.08 | 98 | 1014.0 |
| 20260510104221 | 20 | 336 | 0.0 | 0.0 | 0.08 | 0.00 | 0.08 | 97 | 1014.0 |
| 20260510103720 | 20 | 336 | 0.0 | 0.0 | 0.08 | 0.00 | 0.08 | 97 | 1014.0 |
| 20260510103220 | 20 | 336 | 0.0 | 0.0 | 0.08 | 0.00 | 0.08 | 97 | 1014.0 |
| 20260510102720 | 20 | 336 | 0.0 | 3.2 | 0.08 | 0.00 | 0.08 | 97 | 1014.0 |
| 20260510102221 | 21 | 148 | 0.0 | 0.0 | 0.08 | 0.00 | 0.08 | 97 | 1014.0 |
| 20260510101720 | 21 | 148 | 0.0 | 0.0 | 0.08 | 0.00 | 0.08 | 97 | 1014.0 |
| 20260510101220 | 21 | 148 | 0.0 | 0.0 | 0.05 | 0.00 | 0.08 | 97 | 1014.0 |
| 20260510100722 | 21 | 182 | 0.0 | 0.0 | 0.03 | 0.00 | 0.05 | 97 | 1014.0 |
| 20260510100220 | 21 | 248 | 0.0 | 0.0 | 0.03 | 0.00 | 0.03 | 97 | 1014.0 |
| 20260510095720 | 20 | 246 | 0.0 | 0.0 | 0.00 | 0.00 | 0.00 | 97 | 1014.0 |
| 20260510095220 | 20 | 256 | 0.0 | 0.0 | 0.00 | 0.00 | 0.00 | 97 | 1014.0 |
| 20260510094721 | 20 | 256 | 0.0 | 0.0 | 0.00 | 0.00 | 0.00 | 97 | 1014.0 |
| 20260510094220 | 20 | 256 | 0.0 | 0.0 | 0.00 | 0.00 | 0.00 | 97 | 1014.0 |
| 20260510093720 | 20 | 256 | 0.0 | 0.0 | 0.00 | 0.00 | 0.00 | 97 | 1013.0 |
| 20260510093220 | 20 | 256 | 0.0 | 0.0 | 0.00 | 0.00 | 0.00 | 97 | 1013.0 |
| 20260510092720 | 20 | 256 | 0.0 | 0.0 | 0.00 | 0.00 | 0.00 | 97 | 1014.0 |
| 20260510092220 | 20 | 256 | 0.0 | 0.0 | 0.00 | 0.00 | 0.00 | 97 | 1013.0 |
| 20260510091720 | 21 | 256 | 0.0 | 0.0 | 0.00 | 0.00 | 0.00 | 97 | 1013.0 |
| 20260510091220 | 21 | 256 | 0.0 | 0.0 | 0.00 | 0.00 | 0.00 | 97 | 1013.0 |
| 20260510090720 | 21 | 256 | 0.0 | 0.0 | 0.00 | 0.00 | 0.00 | 97 | 1013.0 |
| 20260510090220 | 21 | 256 | 0.0 | 0.0 | 0.00 | 0.00 | 0.00 | 97 | 1013.0 |
| 20260510085720 | 21 | 256 | 0.0 | 0.0 | 0.00 | 0.00 | 0.00 | 97 | 1013.0 |
| 20260510085220 | 21 | 256 | 0.0 | 0.0 | 0.00 | 0.00 | 0.00 | 97 | 1013.0 |
| 20260510084720 | 21 | 256 | 0.0 | 0.0 | 0.00 | 0.00 | 0.00 | 97 | 1013.0 |
| 20260510084220 | 21 | 256 | 0.0 | 0.0 | 0.00 | 0.00 | 0.00 | 97 | 1013.0 |
| 20260510083720 | 21 | 256 | 0.0 | 0.0 | 0.00 | 0.00 | 0.00 | 97 | 1013.0 |
| 20260510083220 | 21 | 256 | 0.0 | 0.0 | 0.00 | 0.00 | 0.00 | 97 | 1013.0 |
| 20260510082720 | 21 | 256 | 0.0 | 0.0 | 0.00 | 0.00 | 0.00 | 97 | 1013.0 |
| 20260510082220 | 21 | 256 | 0.0 | 0.0 | 0.00 | 0.00 | 0.00 | 97 | 1013.0 |
| 20260510081721 | 21 | 256 | 0.0 | 0.0 | 0.00 | 0.00 | 0.00 | 97 | 1013.0 |
| 20260510081222 | 21 | 256 | 0.0 | 0.0 | 0.00 | 0.00 | 0.00 | 97 | 1013.0 |
| 20260510080722 | 21 | 256 | 0.0 | 0.0 | 0.00 | 0.00 | 0.00 | 97 | 1013.0 |
| 20260510080220 | 21 | 256 | 0.0 | 0.0 | 0.00 | 0.00 | 0.00 | 97 | 1013.0 |
| 20260510075721 | 21 | 256 | 0.0 | 0.0 | 0.00 | 0.00 | 0.00 | 97 | 1013.0 |
| 20260510075220 | 21 | 256 | 0.0 | 0.0 | 0.00 | 0.00 | 0.00 | 97 | 1013.0 |
| 20260510074721 | 21 | 256 | 0.0 | 0.0 | 0.00 | 0.00 | 0.00 | 97 | 1012.0 |
| 20260510074221 | 21 | 256 | 0.0 | 0.0 | 0.00 | 0.00 | 0.00 | 97 | 1013.0 |
| 20260510073720 | 21 | 256 | 0.0 | 0.0 | 0.00 | 0.00 | 0.00 | 97 | 1012.0 |
| 20260510073220 | 21 | 256 | 0.0 | 0.0 | 0.00 | 0.00 | 0.00 | 97 | 1012.0 |
| 20260510072720 | 21 | 256 | 0.0 | 0.0 | 0.00 | 0.00 | 0.00 | 97 | 1012.0 |
| 20260510072220 | 21 | 256 | 0.0 | 0.0 | 0.00 | 0.00 | 0.00 | 97 | 1012.0 |
| 20260510071721 | 21 | 256 | 0.0 | 0.0 | 0.00 | 0.00 | 0.00 | 97 | 1012.0 |
| 20260510071220 | 21 | 256 | 0.0 | 0.0 | 0.00 | 0.00 | 0.00 | 97 | 1012.0 |
| 20260510070720 | 21 | 256 | 0.0 | 0.0 | 0.00 | 0.00 | 0.00 | 97 | 1012.0 |
| 20260510070220 | 21 | 256 | 0.0 | 0.0 | 0.00 | 0.00 | 0.00 | 97 | 1012.0 |
| 20260510065721 | 21 | 256 | 0.0 | 0.0 | 0.00 | 0.00 | 0.00 | 97 | 1012.0 |
| 20260510065221 | 21 | 273 | 0.0 | 0.0 | 0.00 | 0.00 | 0.00 | 97 | 1012.0 |
| 20260510064720 | 21 | 273 | 0.0 | 0.0 | 0.00 | 0.00 | 0.00 | 97 | 1012.0 |
| 20260510064220 | 21 | 273 | 0.0 | 0.0 | 0.00 | 0.00 | 0.00 | 97 | 1013.0 |
| 20260510063720 | 21 | 273 | 0.0 | 0.0 | 0.00 | 0.00 | 0.00 | 97 | 1013.0 |
| 20260510063220 | 22 | 273 | 0.0 | 0.0 | 0.00 | 0.00 | 0.00 | 97 | 1013.0 |
| 20260510062721 | 21 | 273 | 0.0 | 0.0 | 0.00 | 0.00 | 0.00 | 97 | 1013.0 |
| 20260510062220 | 21 | 172 | 0.0 | 0.0 | 0.00 | 0.00 | 0.00 | 97 | 1013.0 |
| 20260510061720 | 21 | 172 | 0.0 | 0.0 | 0.00 | 0.00 | 0.00 | 97 | 1013.0 |
| 20260510061220 | 22 | 172 | 0.0 | 0.0 | 0.00 | 0.00 | 0.00 | 97 | 1013.0 |
| 20260510060721 | 21 | 239 | 0.0 | 0.0 | 0.00 | 0.00 | 0.00 | 97 | 1013.0 |
| 20260510060220 | 21 | 109 | 0.0 | 0.0 | 0.00 | 0.00 | 0.00 | 96 | 1013.0 |
| 20260510055720 | 21 | 109 | 0.0 | 0.0 | 0.00 | 0.00 | 0.00 | 96 | 1013.0 |
| 20260510055220 | 22 | 109 | 0.0 | 0.0 | 0.00 | 0.00 | 0.00 | 96 | 1014.0 |
| 20260510054721 | 22 | 173 | 0.0 | 0.0 | 0.00 | 0.00 | 0.00 | 96 | 1013.0 |
| 20260510054220 | 22 | 173 | 0.0 | 0.0 | 0.00 | 0.00 | 0.00 | 96 | 1014.0 |
| 20260510053720 | 22 | 125 | 0.0 | 0.0 | 0.00 | 0.00 | 0.00 | 96 | 1014.0 |
| 20260510053220 | 22 | 125 | 0.0 | 0.0 | 0.00 | 0.00 | 0.00 | 96 | 1014.0 |
| 20260510052720 | 22 | 125 | 0.0 | 0.0 | 0.00 | 0.00 | 0.00 | 96 | 1014.0 |
| 20260510052220 | 22 | 125 | 0.0 | 0.0 | 0.00 | 0.00 | 0.00 | 96 | 1014.0 |
| 20260510051721 | 22 | 125 | 0.0 | 0.0 | 0.00 | 0.00 | 0.00 | 96 | 1014.0 |
| 20260510051220 | 22 | 125 | 0.0 | 0.0 | 0.00 | 0.00 | 0.00 | 96 | 1014.0 |
| 20260510050720 | 22 | 125 | 0.0 | 0.0 | 0.00 | 0.00 | 0.00 | 96 | 1014.0 |
| 20260510050220 | 22 | 154 | 0.0 | 0.0 | 0.00 | 0.00 | 0.00 | 96 | 1014.0 |
| 20260510045720 | 21 | 154 | 0.0 | 0.0 | 0.00 | 0.00 | 0.00 | 96 | 1014.0 |
| 20260510045221 | 21 | 154 | 0.0 | 0.0 | 0.00 | 0.00 | 0.00 | 96 | 1014.0 |
| 20260510044721 | 21 | 154 | 0.0 | 0.0 | 0.00 | 0.00 | 0.00 | 96 | 1014.0 |
| 20260510044220 | 21 | 154 | 0.0 | 0.0 | 0.00 | 0.00 | 0.00 | 96 | 1014.0 |
| 20260510043720 | 21 | 154 | 0.0 | 0.0 | 0.00 | 0.00 | 0.00 | 96 | 1014.0 |
| 20260510043220 | 21 | 154 | 0.0 | 0.0 | 0.00 | 0.00 | 0.00 | 96 | 1014.0 |
| 20260510042720 | 21 | 154 | 0.0 | 1.6 | 0.00 | 0.00 | 0.00 | 96 | 1014.0 |
| 20260510042221 | 21 | 154 | 0.0 | 1.6 | 0.00 | 0.00 | 0.00 | 96 | 1014.0 |
| 20260510041721 | 21 | 154 | 0.0 | 0.0 | 0.00 | 0.00 | 0.00 | 96 | 1014.0 |
| 20260510041220 | 21 | 154 | 0.0 | 0.0 | 0.00 | 0.00 | 0.00 | 96 | 1014.0 |
| 20260510040720 | 21 | 154 | 0.0 | 0.0 | 0.00 | 0.00 | 0.00 | 96 | 1014.0 |
| 20260510040220 | 21 | 154 | 0.0 | 0.0 | 0.00 | 0.00 | 0.00 | 96 | 1014.0 |
| 20260510035720 | 21 | 154 | 0.0 | 0.0 | 0.00 | 0.00 | 0.66 | 96 | 1014.0 |
| 20260510035220 | 22 | 154 | 0.0 | 0.0 | 0.00 | 0.00 | 0.66 | 96 | 1014.0 |
| 20260510034720 | 22 | 154 | 0.0 | 0.0 | 0.00 | 0.00 | 0.66 | 96 | 1014.0 |
| 20260510034220 | 22 | 154 | 0.0 | 0.0 | 0.00 | 0.00 | 0.66 | 96 | 1014.0 |
| 20260510033720 | 22 | 153 | 0.0 | 1.6 | 0.00 | 0.00 | 0.66 | 96 | 1014.0 |
| 20260510033221 | 22 | 154 | 0.0 | 0.0 | 0.00 | 0.00 | 0.66 | 96 | 1014.0 |
| 20260510032720 | 22 | 154 | 0.0 | 0.0 | 0.00 | 0.00 | 0.66 | 96 | 1014.0 |
| 20260510032220 | 21 | 154 | 0.0 | 0.0 | 0.00 | 0.00 | 0.66 | 96 | 1014.0 |
| 20260510031720 | 21 | 154 | 0.0 | 0.0 | 0.00 | 0.00 | 0.66 | 95 | 1014.0 |
| 20260510031220 | 22 | 154 | 0.0 | 0.0 | 0.00 | 0.00 | 0.66 | 95 | 1014.0 |
| 20260510030720 | 22 | 154 | 0.0 | 0.0 | 0.00 | 0.00 | 0.66 | 95 | 1014.0 |
| 20260510030220 | 22 | 154 | 0.0 | 0.0 | 0.00 | 0.00 | 0.66 | 95 | 1014.0 |
| 20260510025720 | 22 | 181 | 0.0 | 0.0 | 0.00 | 0.00 | 0.66 | 95 | 1014.0 |
| 20260510025221 | 22 | 181 | 0.0 | 0.0 | 0.00 | 0.00 | 0.66 | 95 | 1014.0 |
| 20260510024720 | 22 | 184 | 0.0 | 0.0 | 0.00 | 0.00 | 0.66 | 95 | 1014.0 |
| 20260510024220 | 22 | 185 | 0.0 | 0.0 | 0.00 | 0.00 | 0.66 | 95 | 1014.0 |
| 20260510023720 | 22 | 185 | 0.0 | 0.0 | 0.00 | 0.00 | 0.66 | 95 | 1014.0 |
| 20260510023220 | 22 | 185 | 0.0 | 3.2 | 0.00 | 0.00 | 0.66 | 95 | 1014.0 |
| 20260510022720 | 22 | 228 | 0.0 | 0.0 | 0.00 | 0.00 | 0.66 | 95 | 1014.0 |
| 20260510022221 | 22 | 228 | 0.0 | 0.0 | 0.00 | 0.00 | 0.66 | 95 | 1014.0 |
| 20260510021720 | 22 | 228 | 0.0 | 0.0 | 0.00 | 0.00 | 0.66 | 95 | 1014.0 |
| 20260510021220 | 22 | 228 | 0.0 | 0.0 | 0.00 | 0.00 | 0.66 | 95 | 1014.0 |
| 20260510020721 | 22 | 228 | 0.0 | 0.0 | 0.00 | 0.00 | 0.66 | 95 | 1014.0 |
| 20260510020220 | 22 | 229 | 0.0 | 0.0 | 0.00 | 0.00 | 0.66 | 95 | 1013.0 |
| 20260510015720 | 22 | 229 | 0.0 | 0.0 | 0.00 | 0.00 | 0.66 | 95 | 1013.0 |
| 20260510015220 | 22 | 229 | 0.0 | 3.2 | 0.00 | 0.00 | 0.66 | 95 | 1013.0 |
| 20260510014722 | 22 | 228 | 0.0 | 0.0 | 0.00 | 0.00 | 0.66 | 95 | 1013.0 |
| 20260510014220 | 22 | 229 | 0.0 | 0.0 | 0.00 | 0.00 | 0.66 | 95 | 1013.0 |
| 20260510013720 | 22 | 229 | 0.0 | 0.0 | 0.00 | 0.00 | 0.66 | 94 | 1013.0 |
| 20260510013220 | 22 | 229 | 0.0 | 0.0 | 0.00 | 0.00 | 0.66 | 94 | 1013.0 |
| 20260510012721 | 22 | 229 | 0.0 | 0.0 | 0.00 | 0.00 | 0.66 | 94 | 1013.0 |
| 20260510012220 | 22 | 229 | 0.0 | 0.0 | 0.00 | 0.00 | 0.66 | 94 | 1013.0 |
| 20260510011720 | 22 | 229 | 0.0 | 0.0 | 0.00 | 0.00 | 0.66 | 94 | 1013.0 |
| 20260510011220 | 22 | 229 | 0.0 | 0.0 | 0.00 | 0.00 | 0.66 | 94 | 1013.0 |
| 20260510010720 | 22 | 229 | 0.0 | 0.0 | 0.00 | 0.00 | 0.66 | 94 | 1013.0 |
| 20260510010221 | 22 | 229 | 0.0 | 0.0 | 0.00 | 0.00 | 0.66 | 94 | 1013.0 |
| 20260510005721 | 22 | 229 | 0.0 | 0.0 | 0.00 | 0.00 | 0.66 | 94 | 1012.0 |
| 20260510005220 | 22 | 229 | 1.6 | 1.6 | 0.00 | 0.00 | 0.66 | 94 | 1013.0 |
| 20260510004721 | 22 | 225 | 0.0 | 1.6 | 0.00 | 0.00 | 0.66 | 94 | 1013.0 |
| 20260510004220 | 22 | 225 | 0.0 | 0.0 | 0.00 | 0.00 | 0.66 | 94 | 1013.0 |
| 20260510003722 | 22 | 224 | 0.0 | 0.0 | 0.00 | 0.00 | 0.66 | 94 | 1013.0 |
| 20260510003221 | 22 | 224 | 0.0 | 1.6 | 0.00 | 0.00 | 0.66 | 93 | 1013.0 |
| 20260510002721 | 22 | 224 | 1.6 | 1.6 | 0.00 | 0.00 | 0.66 | 93 | 1013.0 |
| 20260510002220 | 22 | 225 | 0.0 | 0.0 | 0.00 | 0.00 | 0.66 | 93 | 1013.0 |
| 20260510001721 | 22 | 225 | 1.6 | 3.2 | 0.00 | 0.00 | 0.66 | 93 | 1013.0 |
| 20260510001220 | 22 | 166 | 0.0 | 0.0 | 0.00 | 0.00 | 0.66 | 93 | 1013.0 |
| 20260510000720 | 22 | 166 | 0.0 | 1.6 | 0.00 | 0.00 | 0.66 | 92 | 1013.0 |
| 20260510000220 | 22 | 236 | 1.6 | 3.2 | 0.00 | 0.00 | 0.66 | 92 | 1013.0 |
| 20260509235722 | 22 | 158 | 1.6 | 3.2 | 0.00 | 0.00 | 0.66 | 92 | 1013.0 |
| 20260509235220 | 22 | 157 | 1.6 | 4.8 | 0.00 | 0.00 | 0.66 | 92 | 1013.0 |
| 20260509234720 | 22 | 226 | 3.2 | 4.8 | 0.00 | 0.00 | 0.66 | 92 | 1013.0 |
| 20260509234220 | 22 | 221 | 1.6 | 4.8 | 0.00 | 0.00 | 0.66 | 92 | 1013.0 |
| 20260509233720 | 22 | 212 | 1.6 | 1.6 | 0.00 | 0.00 | 0.66 | 92 | 1013.0 |
| 20260509233220 | 22 | 150 | 1.6 | 4.8 | 0.00 | 0.00 | 0.66 | 91 | 1013.0 |
| 20260509232720 | 22 | 240 | 3.2 | 6.4 | 0.00 | 0.00 | 0.66 | 91 | 1013.0 |
| 20260509232221 | 23 | 221 | 1.6 | 4.8 | 0.00 | 0.00 | 0.66 | 91 | 1013.0 |
| 20260509231722 | 23 | 245 | 6.4 | 9.7 | 0.00 | 0.00 | 0.66 | 91 | 1013.0 |
| 20260509231220 | 23 | 212 | 4.8 | 9.7 | 0.00 | 0.00 | 0.66 | 91 | 1013.0 |
| 20260509230722 | 23 | 228 | 4.8 | 4.8 | 0.00 | 0.00 | 0.66 | 91 | 1013.0 |
| 20260509230220 | 23 | 234 | 3.2 | 4.8 | 0.00 | 0.00 | 0.66 | 91 | 1012.0 |
| 20260509225720 | 23 | 170 | 1.6 | 3.2 | 0.00 | 0.00 | 0.66 | 91 | 1013.0 |
| 20260509225220 | 23 | 171 | 1.6 | 1.6 | 0.00 | 0.00 | 0.66 | 91 | 1013.0 |
| 20260509224721 | 23 | 170 | 3.2 | 3.2 | 0.00 | 0.00 | 0.66 | 91 | 1013.0 |
| 20260509224220 | 23 | 196 | 0.0 | 1.6 | 0.00 | 0.00 | 0.66 | 90 | 1013.0 |
| 20260509223721 | 23 | 197 | 1.6 | 1.6 | 0.00 | 0.00 | 0.66 | 90 | 1013.0 |
| 20260509223220 | 23 | 194 | 1.6 | 1.6 | 0.00 | 0.00 | 0.66 | 90 | 1013.0 |
| 20260509222720 | 23 | 238 | 0.0 | 3.2 | 0.00 | 0.00 | 0.66 | 89 | 1013.0 |
| 20260509222220 | 23 | 152 | 0.0 | 1.6 | 0.00 | 0.00 | 0.66 | 90 | 1013.0 |
| 20260509221720 | 23 | 162 | 0.0 | 1.6 | 0.00 | 0.00 | 0.66 | 89 | 1013.0 |
| 20260509221220 | 23 | 185 | 1.6 | 3.2 | 0.00 | 0.00 | 0.66 | 89 | 1012.0 |
| 20260509220720 | 23 | 179 | 1.6 | 3.2 | 0.00 | 0.00 | 0.66 | 89 | 1013.0 |
| 20260509220220 | 23 | 190 | 3.2 | 4.8 | 0.00 | 0.00 | 0.66 | 88 | 1013.0 |
| 20260509215720 | 23 | 195 | 1.6 | 3.2 | 0.00 | 0.00 | 0.66 | 88 | 1012.0 |
| 20260509215220 | 24 | 163 | 1.6 | 1.6 | 0.00 | 0.00 | 0.66 | 88 | 1012.0 |
| 20260509214720 | 24 | 140 | 1.6 | 3.2 | 0.00 | 0.00 | 0.66 | 87 | 1012.0 |
| 20260509214220 | 24 | 128 | 3.2 | 3.2 | 0.00 | 0.00 | 0.66 | 87 | 1013.0 |
| 20260509213722 | 24 | 213 | 3.2 | 4.8 | 0.00 | 0.00 | 0.66 | 87 | 1012.0 |
| 20260509213220 | 24 | 157 | 1.6 | 3.2 | 0.03 | 0.00 | 0.66 | 87 | 1012.0 |
| 20260509212720 | 24 | 167 | 3.2 | 4.8 | 0.03 | 0.00 | 0.66 | 87 | 1012.0 |
| 20260509212221 | 24 | 163 | 3.2 | 3.2 | 0.03 | 0.00 | 0.66 | 88 | 1012.0 |
| 20260509211721 | 24 | 133 | 0.0 | 0.0 | 0.05 | 0.00 | 0.66 | 88 | 1012.0 |
| 20260509211221 | 24 | 132 | 0.0 | 0.0 | 0.08 | 0.00 | 0.66 | 88 | 1012.0 |
| 20260509210720 | 25 | 133 | 0.0 | 0.0 | 0.08 | 0.00 | 0.66 | 89 | 1012.0 |
| 20260509210221 | 24 | 130 | 0.0 | 0.0 | 0.08 | 0.00 | 0.66 | 90 | 1013.0 |
| 20260509205721 | 24 | 131 | 0.0 | 0.0 | 0.08 | 0.00 | 0.66 | 89 | 1012.0 |
| 20260509205220 | 24 | 131 | 0.0 | 0.0 | 0.08 | 0.00 | 0.66 | 89 | 1012.0 |
| 20260509204720 | 24 | 134 | 0.0 | 0.0 | 0.08 | 0.00 | 0.66 | 89 | 1012.0 |
| 20260509204220 | 24 | 134 | 0.0 | 0.0 | 0.08 | 0.00 | 0.66 | 88 | 1012.0 |
| 20260509203720 | 24 | 184 | 0.0 | 1.6 | 0.08 | 0.00 | 0.66 | 88 | 1012.0 |
| 20260509203220 | 24 | 214 | 1.6 | 3.2 | 0.05 | 0.00 | 0.66 | 87 | 1012.0 |
| 20260509202720 | 25 | 180 | 6.4 | 9.7 | 0.05 | 0.00 | 0.64 | 85 | 1012.0 |
| 20260509202220 | 26 | 215 | 3.2 | 3.2 | 0.03 | 0.00 | 0.64 | 84 | 1012.0 |
| 20260509201720 | 26 | 134 | 0.0 | 1.6 | 0.00 | 0.00 | 0.64 | 83 | 1012.0 |
| 20260509201220 | 26 | 162 | 3.2 | 3.2 | 0.00 | 0.00 | 0.58 | 80 | 1012.0 |
| 20260509200720 | 26 | 219 | 1.6 | 3.2 | 0.00 | 0.00 | 0.58 | 79 | 1012.0 |
| 20260509200220 | 26 | 188 | 1.6 | 1.6 | 0.00 | 0.00 | 0.58 | 78 | 1012.0 |
| 20260509195720 | 26 | 119 | 0.0 | 1.6 | 0.00 | 0.00 | 0.58 | 78 | 1012.0 |
| 20260509195220 | 26 | 107 | 0.0 | 1.6 | 0.00 | 0.00 | 0.58 | 78 | 1012.0 |
| 20260509194720 | 26 | 152 | 1.6 | 3.2 | 0.00 | 0.00 | 0.58 | 78 | 1012.0 |
| 20260509194220 | 26 | 181 | 0.0 | 3.2 | 0.00 | 0.00 | 0.58 | 78 | 1012.0 |
| 20260509193720 | 26 | 203 | 0.0 | 3.2 | 0.00 | 0.00 | 0.58 | 78 | 1012.0 |
| 20260509193220 | 26 | 182 | 4.8 | 4.8 | 0.00 | 0.00 | 0.58 | 77 | 1012.0 |
| 20260509192720 | 27 | 167 | 3.2 | 3.2 | 0.00 | 0.00 | 0.58 | 77 | 1012.0 |
| 20260509192221 | 27 | 165 | 0.0 | 1.6 | 0.00 | 0.00 | 0.58 | 77 | 1012.0 |
| 20260509191720 | 27 | 153 | 0.0 | 1.6 | 0.00 | 0.00 | 0.58 | 78 | 1012.0 |
| 20260509191221 | 26 | 153 | 0.0 | 1.6 | 0.00 | 0.00 | 0.58 | 79 | 1012.0 |
| 20260509190721 | 26 | 153 | 0.0 | 0.0 | 0.00 | 0.00 | 0.58 | 78 | 1012.0 |
| 20260509190221 | 26 | 153 | 0.0 | 0.0 | 0.00 | 0.00 | 0.58 | 78 | 1012.0 |
| 20260509185720 | 26 | 153 | 3.2 | 3.2 | 0.00 | 0.00 | 0.58 | 77 | 1012.0 |
| 20260509185221 | 26 | 122 | 1.6 | 1.6 | 0.00 | 0.00 | 0.58 | 77 | 1012.0 |
| 20260509184720 | 26 | 122 | 0.0 | 1.6 | 0.00 | 0.00 | 0.58 | 77 | 1012.0 |
| 20260509184220 | 26 | 122 | 0.0 | 0.0 | 0.00 | 0.00 | 0.58 | 75 | 1012.0 |
| 20260509183720 | 27 | 120 | 0.0 | 0.0 | 0.00 | 0.00 | 0.58 | 74 | 1012.0 |
| 20260509183220 | 27 | 120 | 0.0 | 0.0 | 0.00 | 0.00 | 0.58 | 75 | 1013.0 |
| 20260509182723 | 27 | 98 | 0.0 | 1.6 | 0.00 | 0.00 | 0.58 | 71 | 1013.0 |
| 20260509182220 | 27 | 104 | 0.0 | 0.0 | 0.00 | 0.00 | 0.58 | 71 | 1012.0 |
| 20260509181721 | 27 | 101 | 0.0 | 0.0 | 0.00 | 0.00 | 0.58 | 73 | 1012.0 |
| 20260509181221 | 28 | 95 | 1.6 | 1.6 | 0.00 | 0.00 | 0.58 | 73 | 1013.0 |
| 20260509180720 | 28 | 95 | 1.6 | 3.2 | 0.00 | 0.00 | 0.58 | 70 | 1013.0 |
| 20260509180221 | 28 | 58 | 0.0 | 3.2 | 0.00 | 0.00 | 0.58 | 69 | 1013.0 |
| 20260509175720 | 28 | 6 | 0.0 | 1.6 | 0.00 | 0.00 | 0.58 | 70 | 1013.0 |
| 20260509175220 | 28 | 36 | 0.0 | 1.6 | 0.00 | 0.00 | 0.58 | 69 | 1013.0 |
| 20260509174720 | 28 | 85 | 1.6 | 1.6 | 0.00 | 0.00 | 0.58 | 70 | 1013.0 |
| 20260509174220 | 28 | 95 | 3.2 | 6.4 | 0.00 | 0.00 | 0.58 | 68 | 1013.0 |
| 20260509173721 | 28 | 83 | 0.0 | 1.6 | 0.00 | 0.00 | 0.58 | 72 | 1013.0 |
| 20260509173220 | 27 | 69 | 1.6 | 1.6 | 0.00 | 0.00 | 0.58 | 73 | 1013.0 |
| 20260509172720 | 27 | 236 | 0.0 | 1.6 | 0.00 | 0.00 | 0.58 | 71 | 1013.0 |
| 20260509172220 | 28 | 270 | 0.0 | 0.0 | 0.00 | 0.00 | 0.58 | 70 | 1013.0 |
| 20260509171721 | 27 | 84 | 0.0 | 0.0 | 0.00 | 0.00 | 0.58 | 72 | 1013.0 |
| 20260509171220 | 27 | 96 | 3.2 | 4.8 | 0.00 | 0.00 | 0.58 | 72 | 1013.0 |
| 20260509170720 | 27 | 93 | 0.0 | 1.6 | 0.00 | 0.00 | 0.58 | 73 | 1013.0 |
| 20260509170220 | 27 | 92 | 0.0 | 0.0 | 0.00 | 0.00 | 0.58 | 73 | 1013.0 |
| 20260509165721 | 27 | 53 | 0.0 | 3.2 | 0.00 | 0.00 | 0.58 | 72 | 1013.0 |
| 20260509165220 | 27 | 95 | 0.0 | 1.6 | 0.00 | 0.00 | 0.58 | 72 | 1013.0 |
| 20260509164721 | 27 | 81 | 0.0 | 1.6 | 0.00 | 0.00 | 0.58 | 71 | 1013.0 |
| 20260509164220 | 27 | 51 | 1.6 | 1.6 | 0.00 | 0.00 | 0.58 | 72 | 1013.0 |
| 20260509163720 | 27 | 82 | 3.2 | 3.2 | 0.00 | 0.00 | 0.58 | 72 | 1013.0 |
| 20260509163221 | 27 | 70 | 0.0 | 3.2 | 0.00 | 0.00 | 0.58 | 72 | 1013.0 |
| 20260509162720 | 27 | 80 | 1.6 | 3.2 | 0.00 | 0.00 | 0.58 | 72 | 1013.0 |
| 20260509162221 | 27 | 72 | 1.6 | 1.6 | 0.00 | 0.00 | 0.58 | 72 | 1013.0 |
| 20260509161720 | 27 | 87 | 0.0 | 1.6 | 0.00 | 0.00 | 0.58 | 75 | 1013.0 |
| 20260509161221 | 27 | 57 | 1.6 | 1.6 | 0.00 | 0.00 | 0.58 | 74 | 1013.0 |
| 20260509160721 | 27 | 61 | 1.6 | 3.2 | 0.00 | 0.00 | 0.58 | 73 | 1014.0 |
| 20260509160220 | 27 | 281 | 1.6 | 3.2 | 0.00 | 0.00 | 0.58 | 74 | 1013.0 |
| 20260509155720 | 27 | 86 | 0.0 | 3.2 | 0.00 | 0.00 | 0.58 | 74 | 1013.0 |
| 20260509155221 | 27 | 116 | 3.2 | 3.2 | 0.00 | 0.00 | 0.58 | 76 | 1013.0 |
| 20260509154720 | 26 | 93 | 3.2 | 4.8 | 0.00 | 0.00 | 0.58 | 75 | 1013.0 |
| 20260509154221 | 27 | 90 | 3.2 | 3.2 | 0.00 | 0.00 | 0.58 | 76 | 1013.0 |
| 20260509153729 | 27 | 75 | 0.0 | 3.2 | 0.00 | 0.00 | 0.58 | 76 | 1013.0 |
| 20260509153220 | 27 | 64 | 3.2 | 4.8 | 0.00 | 0.00 | 0.58 | 75 | 1013.0 |
| 20260509152720 | 27 | 257 | 1.6 | 1.6 | 0.00 | 0.00 | 0.58 | 77 | 1013.0 |
| 20260509152221 | 26 | 45 | 1.6 | 1.6 | 0.00 | 0.00 | 0.58 | 76 | 1013.0 |
| 20260509151720 | 26 | 60 | 1.6 | 1.6 | 0.00 | 0.00 | 0.58 | 77 | 1013.0 |
| 20260509151220 | 26 | 57 | 0.0 | 3.2 | 0.00 | 0.00 | 0.58 | 77 | 1013.0 |
| 20260509150720 | 26 | 59 | 0.0 | 3.2 | 0.00 | 0.00 | 0.58 | 77 | 1013.0 |